KUIPER-00077

导读 | 豆包AI

KUIPER-00077是美国亚马逊柯伊伯(Project Kuiper)卫星星座的组网卫星,于2025年7月16日在美国佛罗里达州空军东部试验场发射,是该批次一箭多星任务中的卫星之一。卫星运行在近地轨道,平均轨道高度约636公里,倾角约51.9度,目前处于在轨运行状态,承担低轨互联网卫星系统组网任务,服务全球宽带互联网接入。

Basic Information
目录编号:
64824
目录名称:
KUIPER-00077
国际标识:
2025-151J
轨道中心:
EARTH
卫星名称:
KUIPER-00077
卫星全名:
KUIPER-00077
卫星状态:
在轨 (已飞行287 天)
发射日期:
2025-07-16 UTC
国别 :
美国 (US)
星等 :
--
Orbit Information
数据来源 国际轨道数据
星历时间: 2026-04-29T04:52:40+0800
3小时前
查看轨道信息
半长轴: 7007.674km
偏心率: 0.0000916
轨道倾角: 51.901°
近地点辐角 61.327°
升交点赤经 76.207°
平近点角 298.778°
近地点: 628.895km
远地点: 630.179km
周期: 97.302分钟
每日圈数: 14.799326
Detailed Information
使用方式:
暂无
2D Orbit Map
3D Orbit Map
Orbit Altitude Analysis Chart
Orbit Inclination Analysis Chart
Orbit Comprehensive Analysis Chart
View Comprehensive Chart